Weather History for KOTH - November, 2011

Change the Weather History Date:

Tuesday, November 22, 2011

  Actual Average Record
Temperature  
Mean Temperature 58 °F 48 °F  
Max Temperature 63 °F 54 °F 68 °F (1930)
Min Temperature 52 °F 42 °F 28 °F (1905)
Degree Days  
Heating Degree Days 7 17  
Month to date heating degree days 366 341  
Since 1 July heating degree days 1212 1307  
Cooling Degree Days 0 0  
Month to date cooling degree days 0 0  
Year to date cooling degree days 1 2  
Growing Degree Days 6 (Base 50)    
Moisture  
Dew Point 47 °F    
Average Humidity 70    
Maximum Humidity 77    
Minimum Humidity 57    
Precipitation  
Precipitation 0.45 in 0.38 in 3.51 in (1961)
Month to date precipitation 3.66 7.16  
Year to date precipitation 34.57 50.71  
Sea Level Pressure  
Sea Level Pressure 29.77 in    
Wind  
Wind Speed 24 mph (South)    
Max Wind Speed 31 mph    
Max Gust Speed 51 mph    
Visibility 10 miles    
Events      
T = Trace of Precipitation, MM = Missing Value Source: NWS Daily Summary

Daily Weather History Graph

Daily Weather History Graph

Search for Another Location

Airport or City:

Trip Planner

Search our weather history database for the weather conditions in past years. The results will help you decide how hot, cold, wet, or windy it might be!

Date:

Astronomy

Nov. 22, 2011 Rise Set
Actual Time 7:19 AM PST 4:46 PM PST
Civil Twilight 6:47 AM PST 5:18 PM PST
Nautical Twilight 6:12 AM PST 5:53 PM PST
Astronomical Twilight 5:38 AM PST 6:27 PM PST
Moon 4:13 AM PST (11/22) 2:52 PM PST (11/22)
Length of Visible Light 10h 30m
Length of Day
9h 27m
Waning Crescent, 9% of the Moon is Illuminated
Nov 22
Waning Crescent
Nov 24
New
Dec 2
First Quarter
Dec 10
Full
Dec 17
Last Quarter

Hourly Weather History & Observations

Time (PST) Temp. Dew Point Humidity Pressure Visibility Wind Dir Wind Speed Gust Speed Precip Events Conditions
12:15 AM 51.8 °F 44.6 °F 76% 29.82 in 10.0 mi SSW 31.1 mph 41.4 mph N/A   Mostly Cloudy
12:35 AM 53.6 °F 44.6 °F 72% 29.81 in 8.0 mi South 29.9 mph 46.0 mph N/A   Overcast
12:55 AM 53.6 °F 44.6 °F 72% 29.81 in 10.0 mi SSW 29.9 mph 46.0 mph 0.01 in   Overcast
1:15 AM 53.6 °F 44.6 °F 72% 29.81 in 10.0 mi South 21.9 mph 36.8 mph N/A   Overcast
1:35 AM 53.6 °F 44.6 °F 72% 29.80 in 10.0 mi SSW 21.9 mph 34.5 mph 0.01 in   Mostly Cloudy
1:55 AM 53.6 °F 46.4 °F 77% 29.80 in 10.0 mi South 17.3 mph 32.2 mph 0.08 in   Overcast
2:15 AM 53.6 °F 46.4 °F 77% 29.79 in 10.0 mi South 28.8 mph 43.7 mph 0.06 in   Mostly Cloudy
2:35 AM 53.6 °F 46.4 °F 77% 29.81 in 8.0 mi SSW 26.5 mph 40.3 mph 0.10 in   Overcast
2:55 AM 53.6 °F 46.4 °F 77% 29.80 in 8.0 mi South 28.8 mph 48.3 mph 0.13 in   Overcast
3:15 AM 53.6 °F 46.4 °F 77% 29.80 in 10.0 mi SSW 29.9 mph 46.0 mph 0.01 in   Overcast
3:35 AM 53.6 °F 44.6 °F 72% 29.80 in 10.0 mi South 24.2 mph 49.5 mph 0.01 in   Overcast
3:55 AM 53.6 °F 46.4 °F 77% 29.80 in 10.0 mi SSW 31.1 mph 43.7 mph 0.01 in   Overcast
4:15 AM 55.4 °F 46.4 °F 72% 29.79 in 10.0 mi SSW 29.9 mph 42.6 mph N/A   Overcast
4:35 AM 55.4 °F 46.4 °F 72% 29.78 in 10.0 mi SSW 29.9 mph 43.7 mph N/A   Overcast
4:55 AM 55.4 °F 46.4 °F 72% 29.79 in 10.0 mi South 29.9 mph 44.9 mph N/A   Overcast
5:15 AM 55.4 °F 46.4 °F 72% 29.80 in 10.0 mi SSW 29.9 mph 38.0 mph N/A   Mostly Cloudy
5:35 AM 55.4 °F 46.4 °F 72% 29.80 in 10.0 mi SSW 29.9 mph 42.6 mph N/A   Overcast
5:55 AM 55.4 °F 46.4 °F 72% 29.79 in 10.0 mi South 31.1 mph 41.4 mph 0.01 in   Overcast
6:15 AM 55.4 °F 46.4 °F 72% 29.80 in 10.0 mi South 24.2 mph 36.8 mph N/A   Mostly Cloudy
6:35 AM 55.4 °F 46.4 °F 72% 29.81 in 10.0 mi SSW 27.6 mph 35.7 mph N/A   Overcast
6:55 AM 55.4 °F 46.4 °F 72% 29.82 in 10.0 mi SSW 21.9 mph 42.6 mph N/A   Overcast
7:15 AM 57.2 °F 46.4 °F 67% 29.83 in 10.0 mi SSW 25.3 mph 40.3 mph N/A   Overcast
7:35 AM 57.2 °F 48.2 °F 72% 29.83 in 10.0 mi SSW 26.5 mph 46.0 mph N/A   Overcast
7:55 AM 57.2 °F 48.2 °F 72% 29.84 in 10.0 mi SSW 24.2 mph 38.0 mph N/A   Overcast
8:15 AM 57.2 °F 48.2 °F 72% 29.84 in 10.0 mi South 24.2 mph 41.4 mph N/A   Overcast
8:35 AM 57.2 °F 48.2 °F 72% 29.84 in 10.0 mi South 21.9 mph 33.4 mph N/A   Overcast
8:55 AM 57.2 °F 48.2 °F 72% 29.83 in 10.0 mi SSW 20.7 mph 39.1 mph N/A   Mostly Cloudy
9:15 AM 57.2 °F 48.2 °F 72% 29.84 in 10.0 mi South 25.3 mph 40.3 mph N/A   Mostly Cloudy
9:35 AM 57.2 °F 48.2 °F 72% 29.84 in 10.0 mi South 24.2 mph 38.0 mph N/A   Overcast
10:15 AM 59.0 °F 48.2 °F 67% 29.83 in 10.0 mi South 26.5 mph 42.6 mph N/A   Mostly Cloudy
10:35 AM 60.8 °F 48.2 °F 63% 29.83 in 10.0 mi SSW 24.2 mph 38.0 mph N/A   Mostly Cloudy
10:55 AM 60.8 °F 48.2 °F 63% 29.82 in 10.0 mi SSW 23.0 mph 50.6 mph N/A   Mostly Cloudy
11:15 AM 60.8 °F 48.2 °F 63% 29.82 in 10.0 mi South 25.3 mph 36.8 mph N/A   Mostly Cloudy
11:35 AM 60.8 °F 48.2 °F 63% 29.81 in 10.0 mi South 28.8 mph 38.0 mph N/A   Overcast
11:55 AM 60.8 °F 48.2 °F 63% 29.81 in 10.0 mi SSW 23.0 mph 43.7 mph N/A   Overcast
12:15 PM 60.8 °F 48.2 °F 63% 29.80 in 10.0 mi South 19.6 mph 34.5 mph N/A   Mostly Cloudy
12:35 PM 62.6 °F 48.2 °F 59% 29.78 in 10.0 mi South 27.6 mph 41.4 mph N/A   Mostly Cloudy
12:55 PM 62.6 °F 48.2 °F 59% 29.78 in 10.0 mi South 21.9 mph 41.4 mph N/A   Mostly Cloudy
1:15 PM 60.8 °F 48.2 °F 63% 29.78 in 10.0 mi South 26.5 mph 40.3 mph N/A   Overcast
1:35 PM 62.6 °F 46.4 °F 55% 29.78 in 10.0 mi SSW 26.5 mph 36.8 mph N/A   Mostly Cloudy
1:55 PM 60.8 °F 48.2 °F 63% 29.76 in 10.0 mi South 21.9 mph 28.8 mph N/A   Overcast
2:15 PM 57.2 °F 48.2 °F 72% 29.77 in 6.0 mi South 19.6 mph 34.5 mph 0.01 in   Overcast
2:35 PM 59.0 °F 48.2 °F 67% 29.76 in 10.0 mi SSW 20.7 mph 40.3 mph 0.01 in   Overcast
2:55 PM 60.8 °F 48.2 °F 63% 29.75 in 10.0 mi South 27.6 mph 39.1 mph 0.01 in   Overcast
3:15 PM 60.8 °F 48.2 °F 63% 29.75 in 7.0 mi South 23.0 mph 34.5 mph N/A   Overcast
3:35 PM 59.0 °F 48.2 °F 67% 29.74 in 10.0 mi South 23.0 mph 38.0 mph N/A   Overcast
3:55 PM 60.8 °F 48.2 °F 63% 29.72 in 10.0 mi South 27.6 mph 41.4 mph N/A   Overcast
4:15 PM 60.8 °F 48.2 °F 63% 29.72 in 10.0 mi SSW 24.2 mph 44.9 mph 0.01 in   Overcast
4:35 PM 59.0 °F 48.2 °F 67% 29.74 in 10.0 mi SSW 17.3 mph 39.1 mph 0.04 in   Overcast
4:55 PM 57.2 °F 48.2 °F 72% 29.72 in 10.0 mi SSW 24.2 mph 38.0 mph 0.11 in   Overcast
5:15 PM 57.2 °F 48.2 °F 72% 29.72 in 10.0 mi SSW 26.5 mph 38.0 mph 0.04 in   Overcast
5:35 PM 57.2 °F 48.2 °F 72% 29.69 in 10.0 mi South 26.5 mph 42.6 mph 0.05 in   Mostly Cloudy
5:55 PM 57.2 °F 48.2 °F 72% 29.69 in 10.0 mi South 21.9 mph 33.4 mph 0.05 in   Mostly Cloudy
6:15 PM 57.2 °F 48.2 °F 72% 29.70 in 10.0 mi South 20.7 mph 40.3 mph N/A   Overcast
6:35 PM 59.0 °F 48.2 °F 67% 29.70 in 10.0 mi South 23.0 mph 34.5 mph N/A   Overcast
6:55 PM 57.2 °F 48.2 °F 72% 29.69 in 10.0 mi South 25.3 mph 33.4 mph 0.01 in   Overcast
7:15 PM 55.4 °F 48.2 °F 77% 29.69 in 10.0 mi SSE 15.0 mph 20.7 mph N/A   Overcast
7:35 PM 55.4 °F 48.2 °F 77% 29.69 in 10.0 mi SSE 17.3 mph - 0.01 in   Overcast
7:55 PM 55.4 °F 46.4 °F 72% 29.69 in 10.0 mi South 17.3 mph 26.5 mph 0.01 in   Overcast
8:15 PM 55.4 °F 46.4 °F 72% 29.68 in 10.0 mi South 13.8 mph 26.5 mph 0.01 in   Overcast
8:35 PM 55.4 °F 48.2 °F 77% 29.68 in 10.0 mi South 16.1 mph 24.2 mph 0.01 in   Overcast
8:55 PM 55.4 °F 46.4 °F 72% 29.68 in 10.0 mi South 16.1 mph 25.3 mph 0.01 in   Overcast
9:15 PM 57.2 °F 46.4 °F 67% 29.67 in 10.0 mi South 18.4 mph 25.3 mph N/A   Overcast
9:35 PM 57.2 °F 46.4 °F 67% 29.67 in 10.0 mi South 17.3 mph 24.2 mph 0.01 in   Overcast
9:55 PM 57.2 °F 46.4 °F 67% 29.66 in 10.0 mi South 17.3 mph 29.9 mph 0.01 in   Overcast
10:15 PM 57.2 °F 44.6 °F 63% 29.64 in 10.0 mi South 28.8 mph 44.9 mph N/A   Overcast
10:35 PM 59.0 °F 44.6 °F 59% 29.63 in 10.0 mi South 25.3 mph 39.1 mph N/A   Overcast
10:55 PM 59.0 °F 44.6 °F 59% 29.62 in 10.0 mi South 24.2 mph 31.1 mph N/A   Overcast
11:15 PM 59.0 °F 44.6 °F 59% 29.61 in 10.0 mi South 28.8 mph 39.1 mph N/A   Overcast
11:35 PM 60.8 °F 44.6 °F 55% 29.61 in 10.0 mi South 24.2 mph 34.5 mph N/A   Overcast
11:55 PM 60.8 °F 44.6 °F 55% 29.60 in 10.0 mi South 25.3 mph 32.2 mph N/A   Overcast